Flag for U.S.A. Weather past 2 weeks in Scottsdale, Arizona, U.S.A.

Now
88 °F

Clear.


Feels Like: 88 °F
Forecast: 82 / 100 °F
Wind: No wind

Location: Scottsdale Airport

Current Time: Jul 29, 2014 at 4:05:45 AM

Latest Report: Jul 29, 2014 at 2:53 AM


Visibility: 10 mi

Pressure: 29.87 "Hg

Humidity: 42%

Dew point: 62 °F

Location of ScottsdaleLocation

Historic Weather in Scottsdale — Graph

°F

Scottsdale temperature yesterday

Maximum temperature yesterday: 102 °F (at 4:53 PM)
Minimum temperature yesterday: 83 °F (at 4:53 AM)
Average temperature yesterday: 93 °F

Past Weeks' High & Low Weather Summary

 TemperatureHumidityPressure
High111 °F (Jul 24, 4:53 PM)76% (Jul 15, 3:53 PM)30.09 "Hg (Jul 15, 3:53 PM)
Low80 °F (Jul 15, 3:53 PM)10% (Jul 17, 2:53 PM)29.65 "Hg (Jul 24, 5:53 PM)
Average93 °F30%29.84 "Hg
* Reported Jul 14 2:53 AM — Jul 29 2:53 AM, Scottsdale, Weather by CustomWeather, © 2014

Note: Actual official high and low records may vary slightly from our data, if they occured in-between our weather recording intervals... More about our weather records

Advertising

Scottsdale weather history for previous 24 hours

 ConditionsComfort  
Time TempWeatherWind HumidityBarometerVisibility
2:53 AM
Jul 29
88 °FClear.No wind42%29.87 "Hg10 mi
1:53 AM90 °FClear.No wind38%29.88 "Hg10 mi
12:53 AM92 °FClear.No wind36%29.88 "Hg10 mi
11:53 PM
Jul 28
94 °FClear.3 mph32%29.88 "Hg10 mi
10:53 PM96 °FClear.No wind29%29.88 "Hg10 mi
9:53 PM97 °FClear.No wind27%29.88 "Hg10 mi
8:53 PM98 °FClear.5 mph26%29.87 "Hg10 mi
7:53 PM99 °FClear.3 mph24%29.84 "Hg10 mi
6:53 PM101 °FSunny.3 mph22%29.83 "Hg10 mi
5:53 PM102 °FSunny.5 mph21%29.84 "Hg10 mi
4:53 PM102 °FSunny.5 mph21%29.85 "Hg10 mi
3:53 PM101 °FSunny.No wind22%29.87 "Hg10 mi
2:53 PM100 °FSunny.3 mph21%29.90 "Hg10 mi
1:53 PM99 °FSunny.7 mph24%29.93 "Hg10 mi
12:53 PM98 °FSunny.3 mph25%29.95 "Hg10 mi
11:53 AM97 °FSunny.6 mph27%29.98 "Hg10 mi
10:53 AM94 °FSunny.6 mph31%29.99 "Hg10 mi
9:53 AM92 °FSunny.7 mph33%30.00 "Hg10 mi
8:53 AM91 °FSunny.5 mph36%30.01 "Hg10 mi
7:53 AM86 °FSunny.3 mph45%30.00 "Hg10 mi
6:53 AM85 °FSunny.No wind48%29.98 "Hg10 mi
5:53 AM84 °FSunny.3 mph48%29.96 "Hg10 mi
4:53 AM83 °FClear.No wind51%29.95 "Hg10 mi
Weather by CustomWeather, © 2014

See weather overviewHow to use our weather pages